Regional Weather Roundup
Issued by NWS

Home | Current Version | Previous Version | Text Only | Print | Product List | Glossary On
Versions: 1 2 3 4 5 6 7 8 9 10 11 12 13 14 15 16 17 18 19 20 21 22 23 24 25 26 27 28 29 30 31 32 33 34 35 36 37 38 39 40 41 42 43 44 45 46 47 48 49 50
000
ASUS45 KPSR 270810
RWRAZ

ARIZONA HOURLY REGIONAL WEATHER ROUNDUP
NATIONAL WEATHER SERVICE PHOENIX AZ
100 AM MST TUE SEP 27 2016

NOTE: FAIR INDICATES FEW OR NO CLOUDS BELOW 12,000 FEET WITH NO
SIGNIFICANT WEATHER AND/OR OBSTRUCTIONS TO VISIBILITY.

AZZ001>003-036-270900-
NORTHWEST ARIZONA

CITY           SKY/WX    TMP DP  RH WIND       PRES   REMARKS
BULLHEAD CITY  PTCLDY    81  48  32 SW5       29.96S
KINGMAN        PTCLDY    67  39  35 E8        30.11F
$$

AZZ004>008-015-016-018-270900-
NORTH CENTRAL ARIZONA

CITY           SKY/WX    TMP DP  RH WIND       PRES   REMARKS
GRAND CANYON   PTCLDY    46  37  71 NE3       30.34S
PRESCOTT       MOCLDY    59  46  62 CALM      30.21F
FLAGSTAFF      PTCLDY    47  33  58 CALM      30.34S
PAYSON         CLOUDY    59  48  67 CALM      30.25F
PAGE           CLEAR     61  37  41 SE3       30.20F
$$

AZZ009>014-017-270900-
NORTHEAST ARIZONA

CITY           SKY/WX    TMP DP  RH WIND       PRES   REMARKS
WINSLOW        PTCLDY    51  31  46 S3        30.24F
SAINT JOHNS    CLOUDY    57  31  37 E9        30.26F
WINDOW ROCK    CLEAR     41  26  55 CALM      30.37S
SHOW LOW       LGT RAIN  52  46  82 SW8       30.30S
$$

AZZ023-270900-
GREATER PHOENIX AREA

CITY           SKY/WX    TMP DP  RH WIND       PRES   REMARKS
PHOENIX        MOCLDY    76  48  37 E8        29.99F
BUCKEYE        MOCLDY    72  48  43 E5        30.00F
LUKE AFB       PTCLDY    76  51  40 E5        29.99F
DEER VALLEY    MOCLDY    75  49  39 VRB5      30.01F
SCOTTSDALE     MOCLDY    77  46  33 E9        30.03F
MESA-GATEWAY   MOCLDY    70  45  40 CALM      30.02S
$$

AZZ027-028-270900-
SOUTHWEST MARICOPA COUNTY AND PINAL COUNTY

CITY           SKY/WX    TMP DP  RH WIND       PRES   REMARKS
CASA GRANDE    MOCLDY    72  45  37 NE14      30.02S
GILA BEND      FAIR      75  46  34 NE12      29.95S
$$

AZZ503-504-507>509-270900-
SOUTHEAST ARIZONA

CITY           SKY/WX    TMP DP  RH WIND       PRES   REMARKS
TUCSON         MOCLDY    68  48  48 SE24G30   30.08S
DAVIS-MONTHAN  CLOUDY    65  49  55 SE13      30.07F
NOGALES        PTCLDY    59  48  67 NE9       30.10F
SIERRA VISTA   PTCLDY    55  47  75 SE13      30.19F
DOUGLAS        PTCLDY    57  46  66 E10       30.18F
SAFFORD        CLOUDY    61  48  62 SE9       30.20F
$$

AZZ020-021-025-026-031-270900-
SOUTHWEST ARIZONA

CITY           SKY/WX    TMP DP  RH WIND       PRES   REMARKS
YUMA           CLEAR     83  48  29 E17       29.88
$$

CAZ031-033-041-043-047-048-061-270900-
SOUTHERN CALIFORNIA

CITY           SKY/WX    TMP DP  RH WIND       PRES   REMARKS
DOWNTOWN L.A.  CLEAR     75  54  47 CALM      29.86F
L.A. AIRPORT   PTCLDY    75  52  44 CALM      29.86F
SAN DIEGO      CLOUDY    89  45  21 NE5       29.87F
BURBANK        CLEAR     77  36  22 CALM      29.89F
ONTARIO        CLEAR     75  38  26 NE6       29.90F
RIVERSIDE      CLEAR     73  41  31 E7        29.92S
PALM SPRINGS   PTCLDY    81  53  37 N7        29.95F
EL CENTRO NAS  CLOUDY    83  49  30 SE8       29.89F
IMPERIAL       CLOUDY    84  53  34 S6        29.87S
BLYTHE         MOCLDY    83  49  30 NE8       29.92S
NEEDLES          N/A    N/A N/A N/A MISG      29.95F
$$

NVZ020-UTZ003-270900-
SOUTHERN NEVADA-UTAH

CITY           SKY/WX    TMP DP  RH WIND       PRES   REMARKS
LAS VEGAS      CLEAR     74  29  19 SW3       30.02F
SALT LAKE CITY CLEAR     55  49  80 S5        30.24S
$$

NMZ009-TXZ055-270900-
NEW MEXICO-WEST TEXAS

CITY           SKY/WX    TMP DP  RH WIND       PRES   REMARKS
ALBUQUERQUE    CLOUDY    57  34  41 N5        30.34F
EL PASO        MOCLDY    56  45  66 CALM      30.28F
$$


........................KEY........................
SKY/WX - SKY CONDITION/WEATHER
TMP    - TEMPERATURE IN FAHRENHEIT
DP     - DEW POINT IN FAHRENHEIT
RH     - RELATIVE HUMIDITY IN PERCENT
WIND   - DIRECTION AND SPEED IN MILES PER HOUR (MPH)
VRB    - VARIABLE WIND DIRECTION
PRES   - MEAN SEA LEVEL PRESSURE IN INCHES OF MERCURY
         F - FALLING PRESSURE   R - RISING PRESSURE
         S - STEADY PRESSURE
VSB    - VISIBILITY IN MILES
HX     - HEAT INDEX IN FAHRENHEIT
WCI    - WIND CHILL INDEX IN FAHRENHEIT
TC     - TEMPERATURE IN CELSIUS WHICH IS ALSO KNOWN AS
         TEMPERATURE IN CENTIGRADE
AFB    - AIR FORCE BASE
         LUKE AFB IS LUKE AIR FORCE BASE
         DAVIS-MONTHAN IS DAVIS-MONTHAN AIR FORCE BASE
NAS    - NAVAL AIR STATION
         EL CENTRO NAS IS EL CENTRO NAVAL AIR STATION
N/A    - NOT AVAILABLE




USA.gov is the U.S. government's official web portal to all federal, state and local government web resources and services.